Location: Val-d'Or
(48.1170°N, 77.7670°W)
Time: 18:48:06
(UTC-05:00)

ISS - Visible Passes

Search period start: 28 November 2021 00:00
Search period end: 08 December 2021 00:00
Orbit: 417 x 423 km, 51.6° (Epoch: 28 November)

Date Brightness Start Highest point End Pass type
(mag) Time Alt. Az. Time Alt. Az. Time Alt. Az.
28 Nov -3.2 18:05:19 10° WNW 18:08:35 44° N 18:09:09 39° NNE visible
29 Nov -3.2 17:18:01 10° W 17:21:20 45° N 17:23:51 15° ENE visible
29 Nov -1.7 18:55:07 10° WNW 18:56:50 26° NW 18:56:50 26° NW visible
30 Nov -3.4 18:07:54 10° WNW 18:11:14 49° N 18:11:33 47° NNE visible
01 Dec -3.2 17:20:39 10° WNW 17:23:57 45° N 17:26:19 17° ENE visible
01 Dec -1.7 18:57:34 10° WNW 18:59:19 28° WNW 18:59:19 28° WNW visible
02 Dec -3.9 18:10:20 10° WNW 18:13:45 75° NNE 18:14:09 63° ENE visible
03 Dec -3.6 17:23:05 10° WNW 17:26:28 59° NNE 17:29:03 16° E visible
03 Dec -1.7 19:00:03 10° WNW 19:02:03 28° WSW 19:02:03 28° WSW visible
04 Dec -3.2 18:12:43 10° WNW 18:16:03 56° SSW 18:17:06 37° SSE visible
05 Dec -3.7 17:25:25 10° WNW 17:28:49 81° SSW 17:32:13 10° ESE visible
05 Dec -1.1 19:02:57 10° W 19:05:14 17° SW 19:05:21 17° SW visible
06 Dec -1.6 18:15:16 10° W 18:18:07 25° SW 18:20:50 11° SSE visible
07 Dec -2.2 17:27:47 10° WNW 17:30:57 37° SW 17:34:07 10° SE visible
